sat.trackr.live / text

‹ back to catalog

UM5-EOSAT

NORAD 60555 · 2024-149CR

PAYLOAD ACTIVE UNKNOWN

§ Identity

Operator
Country
MA
Launch date
2024-08-16
Launch site
AFWTR
Launch vehicle
Mass (kg)
RCS (m²)

External: N2YO · Heavens-Above · Gunter

§ Orbital elements

Epoch: 2026-09-22T17:09:39.045600Z

Period
95.87 min
Inclination
97.6642°
Eccentricity
0.0009760
Mean motion
15.02005897 rev/d
Perigee alt
553.9 km
Apogee alt
567.5 km
Semi-major
6,938.8 km
B*
1.6244e-4
RAAN
343.3595°
Arg perigee
164.8334°
Mean anomaly
195.3186°
Rev number
11,485

§ Raw data

UM5-EOSAT1 60555U 24149CR  26265.71503525  .00002070  00000+0  16244-3 0  99982 60555  97.6642 343.3595 0009760 164.8334 195.3186 15.02005897114859

JSON: /api/v1/satellites/60555 · /tle

For live sub-satellite position, see the globe view (requires WebGL).

§ Visibility from observer

Set your observer location to see the next 7 days of passes ≥ 10°. The values pass through the URL so the page stays shareable.

No JS? Fill the form by hand. The geolocation button needs JavaScript.

§ Radio — SatNOGS DB

ModeDescriptionDownlinkUplink
GFSK Mode U - GFSK2k4 401.275 MHz

1 transmitter · refreshed weekly from db.satnogs.org